STARLINK-35329, 65908

Orbit data source: Space-Track

STARLINK-35329, 65908 is a payload satellite owned by SpaceX/Seattle (US) in LEO that was launched on Tue, 07 Oct 2025 UTC via an FALCON 9 launch vehicle from the Air Force Eastern Test Range (AFETR). Payload-class satellites include a variety of spacecraft equipped with specific instruments for various scientific and technological missions. These include communications satellites like Starlink; space stations such as the ISS; scientific satellites like the Hubble; Earth observation satellites from companies like Planet Labs, Umbra, and HawkEye 360; GPS; miniature CubeSats for education and research; and military/defense satellites.

Loading next visibility...
Identifier
65908, 2025-224AC
Orbit
LEO
Country
Flag of USUS
Related business
Manufacturer
SpaceX/Seattle
Mission
Operational Commercial Communications
Bus & Motor
STARLINK V2MO, Unknown motor
Mass
575 kg wet, ~530 kg dry
Launch date (UTC)
2025-10-07 (5 months ago)
Launch vehicle
FALCON 9
Launch site
Air Force Eastern Test Range (AFETR)
Object type
Payload
Rocket body
Debris
Shape & HBR
Box + 2 Pan, 17.7 m
Radar Cross Section
36.964 m²

Expand to show TLE details & history
Last TLE update: 7 hours ago

TLE from 7 hours ago
0 STARLINK-35329
1 65908U 25224AC  26062.34708866  .00030525  00000-0  10383-2 0  9993
2 65908  53.1601  40.7697 0001681  98.7890 261.3301 15.30206814 23894
Epoch: 2026-03-03T08:19Z
TLE epoch observation values (Epoch: 2026-03-03T08:19:48.460Z)
Latitude
-0.00002°
Longitude
114.69031°
Altitude
476.268 km
Speed
7.629 km/s
True Right ascension
02h 43m 04s
True Declination
0° 00' 00"
Sunlit
Object was in daylight at epoch
Visualization orbit readout
Latitude
Unknown
Longitude
Unknown
Altitude
Unknown
Speed
Unknown
Apparent Right ascension
Unknown
Apparent Declination
Unknown
Sunlit
N/A
Visualization observer readout
Local Sidereal Time
19:32:32
Azimuth
Unknown
Elevation
Unknown
Doppler factor
Unknown
Orbital elements
Apogee altitude
476.603 km
Perigee altitude
474.299 km
Semi-major axis
6,853.588 km
Eccentricity
0.00017
Inclination
53.1601°
RAAN
40.7697°
Arg. of periapsis
98.789°
True anomaly
261.31106°
Mean anomaly
261.3301°
Eccentric anomaly
261.32058°
Mean motion
3.82531 °/min
Orbital period
94.11 mins
BSTAR
0.0010383
Loading maneuver chart data...
Computing Atmospheric mass density...
Loading historical data...
Loading historical data...
Loading historical data...
Loading historical data...
Loading historical data...
Loading historical data...
Loading historical data...

Documentation

Showing up to 5 results
|